SCP
0 0 0 0 0 0 0 0 0 0 0 0 0 0 0 0 0 0 0 0 0 0 0 0 0 0 0 0 0 0 0 0 0 0 0 0 0 0 0 0 0 0 0
0 0 0 0 0 0 0 0 0 0 0 0 0 0 0 0 0 0 0 0 0 0 0 0 0 0 0 0 0 0 0 0 0 0 0 0 0 0 0 0 0 0 0
0 0 0 0 0 0 0 0 0 0 0 0 0 0 0 0 0 0 0 0 0 0 0 0 0 0 0 0 0 0 0 0 0 0 0 0 0 0 0 0 0 0 0
0 0 0 0 0 0 0 0 0 0 0 0 0 0 0 0 0 0 0 0 0 0 0 0 0 0 0 0 0 0 0 0 0 0 0 0 0 0 0 0 0 0 0
0 0 0 0 0 0 0 0 0 0 0 0 0 0 0 0 0 0 0 0 0 0 0 0 0 0 0 0 0 0 0 0 0 0 0 0 0 0 0 0 0 0 0
0 0 0 0 0 0 0 0 0 0 0 0 0 0 0 0 0 0 0 0 0 0 0 0 0 0 0 0 0 0 0 0 0 0 0 0 0 0 0 0 0 0 0
0 0 0 0 0 0 0 0 0 0 0 0 0 0 0 0 0 0 0 0 0 0 0 0 0 0 0 0 0 0 0 0 0 0 0 0 0 0 0 0 0 0 0
0 0 0 0 0 0 0 0 0 0 0 0 0 0 0 0 0 0 0 0 0 0 0 0 0 0 0 0 0 0 0 0 0 0 0 0 0 0 0 0 0 0 0
0 0 0 0 0 0 0 0 0 0 0 0 0 0 0 0 0 0 0 0 0 0 0 0 0 0 0 0 0 0 0 0 0 0 0 0 0 0 0 0 0 0 0
0 0 0 0 0 0 0 0 0 0 0 0 0 0 0 0 0 0 0 0 0 0 0 0 0 0 0 0 0 0 0 0 0 0 0 0 0 0 0 0 0 0 0
0 0 0 0 0 0 0 0 0 0 0 0 0 0 0 0 0 0 0 0 0 0 0 0 0 0 0 0 0 0 0 0 0 0 0 0 0 0 0 0 0 0 0
0 0 0 0 0 0 0 0 0 0 0 0 0 0 0 0 0 0 0 0 0 0 0 0 0 0 0 0 0 0 0 0 0 0 0 0 0 0 0 0 0 0 0
0 0 0 0 0 0 0 0 0 0 0 0 0 0 0 0 0 0 0 0 0 0 0 0 0 0 0 0 0 0 0 0 0 0 0 0 0 0 0 0 0 0 0
0 0 0 0 0 0 0 0 0 0 0 0 0 0 0 0 0 0 0 0 0 0 0 0 0 0 0 0 0 0 0 0 0 0 0 0 0 0 0 0 0 0 0
0 0 0 0 0 0 0 0 0 0 0 0 0 0 0 0 0 0 0 0 0 0 0 0 0 0 0 0 0 0 0 0 0 0 0 0 0 0 0 0 0 0 0
0 0 0 0 0 0 0 0 0 0 0 -0 -0 0 0 0 0 0 0 0 0 0 0 0 0 0 0 0 0 0 0 0 0 0 0 0 0 0 0 0 0 0 0
0 0 0 0 0 0 0 0 0 0 0 0 0 0 0 0 0 0 0 0 0 0 0 0 0 0 0 0 0 0 0 0 0 0 0 0 0 0 0 0 0 0 0
0 0 0 0 0 0 0 0 0 0 0 0 0 0 0 0 0 0 0 0 0 0 0 0 0 0 0 0 0 0 0 0 0 0 0 0 0 0 0 0 0 0 0
0 0 0 0 0 0 0 0 0 0 0 0 0 0 0 0 0 0 0 0 0 0 0 0 0 0 0 0 0 0 0 0 0 0 0 0 0 0 0 0 0 0 0
0 0 0 0 0 0 0 0 0 0 0 0 0 0 0 0 0 0 0 0 0 0 0 0 0 0 0 0 0 0 0 0 0 0 0 0 0 0 0 0 0 0 0
0 0 0 0 0 0 0 0 0 0 0 0 0 0 0 0 0 0 0 0 0 0 0 0 0 0 0 0 0 0 0 0 0 0 0 0 0 0 0 0 0 0 0
0 0 0 0 0 0 0 0 0 0 0 0 0 0 0 0 0 0 0 0 0 0 0 0 0 0 0 0 0 0 0 0 0 0 0 0 0 0 0 0 0 0 0
0 0 0 0 0 0 0 0 0 0 0 0 0 0 0 0 0 0 0 0 0 0 0 0 0 0 0 0 0 0 0 0 0 0 0 0 0 0 0 0 0 0 0
0 0 0 0 0 0 0 0 0 0 0 0 0 0 0 0 0 0 0 0 0 0 0 0 0 0 0 0 0 0 0 0 0 0 0 0 0 0 0 0 0 0 0
0 0 0 0 0 0 0 0 0 0 0 0 0 0 0 0 0 0 0 0 0 0 0 0 0 0 0 0 0 0 0 0 0 0 0 0 0 0 0 0 0 0 0
0 0 0 0 0 0 0 0 0 0 0 0 0 0 0 0 0 0 0 0 0 0 0 0 0 0 0 0 0 0 0 0 0 0 0 0 0 0 0 0 0 0 0
Wind_Speed_500mb
9 10 12 15 17 17 16 16 15 15 12 11 12 14 17 20 26 29 33 37 40 42 45 49 52 54 56 58 60 57 64 63 83 100 89 88 90 89 81 76 78 76 75
18 18 18 18 17 16 15 12 9 6 5 8 10 14 17 20 24 27 30 33 37 42 44 48 50 52 55 56 58 60 63 60 71 97 89 90 87 86 81 84 89 85 83
23 22 21 19 17 13 10 7 4 2 3 6 10 14 18 21 26 30 34 37 39 42 44 47 50 53 56 57 59 63 66 67 67 79 101 93 96 96 98 96 95 95 91
24 22 20 18 15 12 9 6 2 5 8 11 15 20 23 26 30 33 37 41 44 46 48 51 54 56 58 60 63 65 67 70 70 74 88 95 91 92 94 94 100 98 99
23 21 19 16 13 9 6 4 4 7 11 15 19 23 28 32 37 42 46 49 54 56 57 60 62 63 65 66 69 71 71 73 74 77 88 94 92 83 86 96 101 102 102
22 19 16 14 11 7 4 3 6 11 17 23 28 32 36 41 46 51 56 59 61 64 66 65 66 67 69 70 71 73 75 73 74 74 85 88 94 90 92 90 93 94 88
20 16 13 9 6 2 4 9 15 21 27 32 36 40 42 45 50 54 58 62 66 67 69 73 74 71 73 74 74 75 74 72 71 70 76 82 83 80 79 83 82 81 88
20 15 10 5 3 8 14 20 25 30 35 41 44 47 49 50 55 59 63 67 70 72 73 74 75 76 74 76 79 80 79 78 74 69 67 75 72 71 71 76 81 85 92
16 9 3 6 12 18 24 28 33 39 43 46 48 51 55 54 58 61 66 71 73 74 73 71 72 75 74 73 72 76 78 76 71 66 66 67 68 69 66 69 78 75 82
6 6 13 17 22 26 31 37 42 46 48 51 52 54 55 57 59 62 65 71 75 76 75 71 70 69 70 66 63 63 72 72 64 66 69 71 71 67 58 51 58 62 70
6 12 20 23 26 31 36 40 43 46 50 54 57 58 61 62 63 62 62 64 65 69 70 71 69 67 66 62 55 57 57 56 62 65 69 67 59 52 47 47 49 49 56
16 18 20 23 28 33 37 41 47 53 58 62 66 66 65 63 60 61 61 57 55 59 66 67 67 62 59 58 53 50 51 53 58 57 54 52 49 53 54 49 45 43 39
15 17 19 24 30 37 42 47 50 54 59 62 64 67 67 64 61 60 59 58 54 56 61 63 62 59 57 53 50 50 45 43 44 47 46 41 46 47 46 45 41 39 38
15 18 22 27 31 36 40 45 48 49 51 55 60 63 65 67 64 61 62 62 58 58 59 57 57 52 48 45 48 45 40 38 40 39 40 45 42 40 38 38 37 34 33
18 20 22 25 29 32 36 40 42 42 47 51 54 60 66 68 64 57 59 56 51 56 55 55 50 49 46 44 46 45 39 37 38 39 43 41 39 41 36 34 31 26 26
18 19 21 25 30 34 37 37 38 45 47 48 48 53 59 63 62 57 52 49 50 49 52 51 44 44 40 41 44 44 39 36 37 40 38 37 40 38 32 29 24 21 21
20 22 25 30 33 36 40 46 53 44 46 45 45 46 49 55 54 54 53 53 50 46 40 38 39 40 38 41 41 40 38 35 36 36 36 36 36 28 26 24 20 17 15
26 28 30 32 35 39 44 47 50 55 58 54 47 47 46 45 45 47 51 50 47 41 43 42 44 45 47 46 43 40 37 35 32 31 31 29 30 25 22 19 18 15 12
29 31 33 36 40 43 47 49 50 53 55 58 58 51 49 45 45 44 46 48 49 46 44 41 43 43 42 41 38 35 33 32 29 28 27 27 27 26 22 17 16 16 15
32 35 38 41 44 47 48 51 51 52 54 56 55 55 52 53 45 47 46 45 46 46 45 43 41 39 37 36 34 32 30 29 28 27 25 25 23 22 20 19 16 15 16
37 40 43 43 46 47 48 50 51 52 53 53 53 51 47 51 51 48 48 48 47 45 43 42 40 38 35 33 31 30 29 27 25 24 24 23 22 19 18 17 17 16 14
42 41 42 44 47 47 47 49 49 50 50 51 53 51 48 50 49 47 46 46 45 45 43 40 37 36 35 34 32 29 27 26 25 24 23 22 22 21 21 20 19 17 16
42 43 44 45 47 48 48 48 49 49 49 48 50 51 48 46 44 43 42 41 41 39 38 37 35 33 32 31 31 30 28 27 25 24 23 24 24 23 22 21 21 21 20
42 43 43 43 45 46 46 45 44 44 45 46 46 45 45 43 42 40 39 37 36 35 34 33 33 33 32 31 31 30 30 29 29 30 31 31 32 31 29 27 25 24 23
42 42 41 42 43 43 43 42 41 42 42 43 43 43 43 43 42 41 40 39 37 37 36 36 36 35 34 31 30 28 28 28 30 30 30 29 28 27 26 26 25 24 23
40 40 39 40 40 39 39 39 40 41 43 43 43 43 43 43 41 39 38 37 35 33 32 32 32 32 32 32 33 33 33 33 32 32 31 29 28 27 27 26 25 24 23
Wind_Direction_500mb
179 169 161 163 168 176 188 202 210 218 224 232 238 253 270 281 287 291 295 299 302 302 302 303 303 304 303 302 300 294 291 288 284 297 296 301 300 299 300 298 300 298 296
155 150 148 144 143 147 149 151 163 180 221 265 273 281 288 295 299 302 304 305 305 306 306 304 305 304 302 302 300 297 295 290 282 293 296 296 297 300 298 298 302 300 298
148 145 143 143 144 146 143 142 153 234 286 315 318 314 313 314 314 313 313 311 309 308 309 309 310 309 309 308 306 302 300 295 289 290 296 297 299 298 300 301 302 303 302
153 153 152 148 149 150 149 143 91 7 354 341 333 329 324 321 317 315 314 314 314 314 314 313 313 312 312 311 308 306 303 300 297 294 295 299 299 301 301 301 304 305 304
163 159 155 148 143 134 116 87 44 1 344 336 332 326 323 322 321 319 317 316 316 315 315 314 314 313 312 311 309 308 304 302 299 297 296 299 298 298 299 303 303 305 302
165 160 152 146 141 136 112 24 343 333 329 328 325 325 325 323 320 318 316 315 313 312 311 309 308 308 307 306 304 303 303 301 296 293 294 292 295 297 300 300 300 300 296
164 159 153 153 160 192 314 325 329 328 328 327 322 319 317 317 314 312 311 310 309 310 310 311 310 311 309 308 305 303 301 299 296 298 295 295 298 298 300 300 297 295 291
169 168 168 178 279 320 324 322 321 321 320 320 319 316 315 315 312 311 310 309 308 309 310 310 310 312 312 311 309 308 306 306 304 301 297 299 301 302 301 300 299 295 293
167 169 204 307 313 312 311 312 316 317 317 316 316 315 314 315 312 312 311 310 309 309 310 311 312 313 314 314 312 309 308 306 308 307 302 300 298 297 295 297 294 297 295
165 290 297 301 299 307 314 318 319 319 318 317 316 316 316 315 314 315 314 313 312 311 309 310 310 311 312 315 315 313 310 314 316 313 308 304 306 309 310 298 297 294 297
277 295 286 295 307 314 317 317 316 316 315 314 313 315 315 317 319 319 317 314 312 310 311 314 317 319 320 321 317 311 313 315 308 307 310 313 319 323 322 319 313 305 298
263 274 293 305 312 315 317 317 316 314 313 314 314 313 314 315 316 316 316 317 315 312 315 316 317 322 321 318 318 317 314 309 309 312 316 323 327 320 316 314 311 310 308
265 280 299 310 313 314 315 314 315 315 314 314 315 314 314 314 315 315 317 318 316 311 314 313 313 316 319 321 325 324 320 321 319 319 321 321 313 315 320 324 327 328 320
274 291 303 310 314 316 318 320 321 322 319 318 317 316 316 318 321 321 317 315 315 311 311 310 315 319 316 321 327 332 331 326 322 321 318 320 324 327 331 335 331 324 318
278 292 305 313 315 318 320 322 322 324 324 326 327 325 323 320 319 315 310 312 306 303 308 308 313 313 313 320 325 332 332 329 326 324 327 327 330 334 337 337 330 317 310
273 287 299 305 308 310 313 315 321 324 328 329 326 320 317 315 315 311 309 304 305 308 304 308 308 306 311 314 319 326 333 330 327 326 324 327 329 336 340 340 332 317 310
268 279 290 299 305 311 319 323 321 320 321 322 320 316 313 313 310 309 307 305 307 308 307 307 302 301 299 303 311 318 323 326 332 325 326 327 330 335 344 350 342 329 326
267 279 292 303 312 318 318 317 316 316 317 319 322 321 317 314 312 308 305 304 305 302 299 296 288 286 290 296 303 309 315 320 325 330 337 339 348 348 348 356 349 339 335
273 288 299 306 311 311 310 310 312 313 315 318 320 318 318 315 310 304 303 305 307 307 304 299 295 294 293 293 294 297 302 307 318 323 324 325 333 343 346 345 335 323 313
284 292 297 301 303 303 306 307 310 312 314 315 316 315 316 309 307 304 304 304 302 302 302 300 297 296 296 297 296 295 295 297 301 307 315 322 324 322 321 320 316 308 299
283 288 293 296 297 301 304 306 309 310 311 312 312 312 311 306 310 306 305 306 304 302 300 298 297 296 294 295 296 297 298 299 300 302 304 307 310 314 317 317 314 310 303
278 285 291 295 299 302 304 306 307 308 310 310 310 310 308 306 305 305 303 302 302 302 302 301 299 299 298 297 297 297 298 300 301 303 304 304 305 306 307 307 306 303 301
280 288 292 296 298 302 304 305 307 308 309 309 309 310 310 310 309 307 305 304 304 304 302 302 301 301 300 300 299 298 299 300 302 303 308 310 308 307 306 303 301 298 295
281 286 289 293 297 300 302 303 303 304 305 307 308 307 308 308 307 306 306 305 304 304 304 303 303 303 301 298 296 296 298 301 302 303 304 303 303 302 300 296 295 294 293
280 284 288 293 296 298 299 300 300 301 302 303 304 304 304 304 304 303 302 303 302 302 302 301 300 299 298 299 301 305 310 314 308 303 300 301 302 303 302 299 297 294 292
277 284 289 293 296 297 298 299 299 299 300 300 300 300 301 301 301 301 301 302 303 304 306 307 309 310 310 310 308 305 301 299 298 297 298 298 297 297 296 295 294 292 290
Wind_Speed_850mb
9 10 12 15 17 17 16 16 15 15 12 11 12 14 17 20 26 29 33 37 40 42 45 49 52 54 56 58 60 57 64 63 83 100 89 88 90 89 81 76 78 76 75
18 18 18 18 17 16 15 12 9 6 5 8 10 14 17 20 24 27 30 33 37 42 44 48 50 52 55 56 58 60 63 60 71 97 89 90 87 86 81 84 89 85 83
23 22 21 19 17 13 10 7 4 2 3 6 10 14 18 21 26 30 34 37 39 42 44 47 50 53 56 57 59 63 66 67 67 79 101 93 96 96 98 96 95 95 91
24 22 20 18 15 12 9 6 2 5 8 11 15 20 23 26 30 33 37 41 44 46 48 51 54 56 58 60 63 65 67 70 70 74 88 95 91 92 94 94 100 98 99
23 21 19 16 13 9 6 4 4 7 11 15 19 23 28 32 37 42 46 49 54 56 57 60 62 63 65 66 69 71 71 73 74 77 88 94 92 83 86 96 101 102 102
22 19 16 14 11 7 4 3 6 11 17 23 28 32 36 41 46 51 56 59 61 64 66 65 66 67 69 70 71 73 75 73 74 74 85 88 94 90 92 90 93 94 88
20 16 13 9 6 2 4 9 15 21 27 32 36 40 42 45 50 54 58 62 66 67 69 73 74 71 73 74 74 75 74 72 71 70 76 82 83 80 79 83 82 81 88
20 15 10 5 3 8 14 20 25 30 35 41 44 47 49 50 55 59 63 67 70 72 73 74 75 76 74 76 79 80 79 78 74 69 67 75 72 71 71 76 81 85 92
16 9 3 6 12 18 24 28 33 39 43 46 48 51 55 54 58 61 66 71 73 74 73 71 72 75 74 73 72 76 78 76 71 66 66 67 68 69 66 69 78 75 82
6 6 13 17 22 26 31 37 42 46 48 51 52 54 55 57 59 62 65 71 75 76 75 71 70 69 70 66 63 63 72 72 64 66 69 71 71 67 58 51 58 62 70
6 12 20 23 26 31 36 40 43 46 50 54 57 58 61 62 63 62 62 64 65 69 70 71 69 67 66 62 55 57 57 56 62 65 69 67 59 52 47 47 49 49 56
16 18 20 23 28 33 37 41 47 53 58 62 66 66 65 63 60 61 61 57 55 59 66 67 67 62 59 58 53 50 51 53 58 57 54 52 49 53 54 49 45 43 39
15 17 19 24 30 37 42 47 50 54 59 62 64 67 67 64 61 60 59 58 54 56 61 63 62 59 57 53 50 50 45 43 44 47 46 41 46 47 46 45 41 39 38
15 18 22 27 31 36 40 45 48 49 51 55 60 63 65 67 64 61 62 62 58 58 59 57 57 52 48 45 48 45 40 38 40 39 40 45 42 40 38 38 37 34 33
18 20 22 25 29 32 36 40 42 42 47 51 54 60 66 68 64 57 59 56 51 56 55 55 50 49 46 44 46 45 39 37 38 39 43 41 39 41 36 34 31 26 26
18 19 21 25 30 34 37 37 38 45 47 48 48 53 59 63 62 57 52 49 50 49 52 51 44 44 40 41 44 44 39 36 37 40 38 37 40 38 32 29 24 21 21
20 22 25 30 33 36 40 46 53 44 46 45 45 46 49 55 54 54 53 53 50 46 40 38 39 40 38 41 41 40 38 35 36 36 36 36 36 28 26 24 20 17 15
26 28 30 32 35 39 44 47 50 55 58 54 47 47 46 45 45 47 51 50 47 41 43 42 44 45 47 46 43 40 37 35 32 31 31 29 30 25 22 19 18 15 12
29 31 33 36 40 43 47 49 50 53 55 58 58 51 49 45 45 44 46 48 49 46 44 41 43 43 42 41 38 35 33 32 29 28 27 27 27 26 22 17 16 16 15
32 35 38 41 44 47 48 51 51 52 54 56 55 55 52 53 45 47 46 45 46 46 45 43 41 39 37 36 34 32 30 29 28 27 25 25 23 22 20 19 16 15 16
37 40 43 43 46 47 48 50 51 52 53 53 53 51 47 51 51 48 48 48 47 45 43 42 40 38 35 33 31 30 29 27 25 24 24 23 22 19 18 17 17 16 14
42 41 42 44 47 47 47 49 49 50 50 51 53 51 48 50 49 47 46 46 45 45 43 40 37 36 35 34 32 29 27 26 25 24 23 22 22 21 21 20 19 17 16
42 43 44 45 47 48 48 48 49 49 49 48 50 51 48 46 44 43 42 41 41 39 38 37 35 33 32 31 31 30 28 27 25 24 23 24 24 23 22 21 21 21 20
42 43 43 43 45 46 46 45 44 44 45 46 46 45 45 43 42 40 39 37 36 35 34 33 33 33 32 31 31 30 30 29 29 30 31 31 32 31 29 27 25 24 23
42 42 41 42 43 43 43 42 41 42 42 43 43 43 43 43 42 41 40 39 37 37 36 36 36 35 34 31 30 28 28 28 30 30 30 29 28 27 26 26 25 24 23
40 40 39 40 40 39 39 39 40 41 43 43 43 43 43 43 41 39 38 37 35 33 32 32 32 32 32 32 33 33 33 33 32 32 31 29 28 27 27 26 25 24 23
Wind_Direction_850mb
179 169 161 163 168 176 188 202 210 218 224 232 238 253 270 281 287 291 295 299 302 302 302 303 303 304 303 302 300 294 291 288 284 297 296 301 300 299 300 298 300 298 296
155 150 148 144 143 147 149 151 163 180 221 265 273 281 288 295 299 302 304 305 305 306 306 304 305 304 302 302 300 297 295 290 282 293 296 296 297 300 298 298 302 300 298
148 145 143 143 144 146 143 142 153 234 286 315 318 314 313 314 314 313 313 311 309 308 309 309 310 309 309 308 306 302 300 295 289 290 296 297 299 298 300 301 302 303 302
153 153 152 148 149 150 149 143 91 7 354 341 333 329 324 321 317 315 314 314 314 314 314 313 313 312 312 311 308 306 303 300 297 294 295 299 299 301 301 301 304 305 304
163 159 155 148 143 134 116 87 44 1 344 336 332 326 323 322 321 319 317 316 316 315 315 314 314 313 312 311 309 308 304 302 299 297 296 299 298 298 299 303 303 305 302
165 160 152 146 141 136 112 24 343 333 329 328 325 325 325 323 320 318 316 315 313 312 311 309 308 308 307 306 304 303 303 301 296 293 294 292 295 297 300 300 300 300 296
164 159 153 153 160 192 314 325 329 328 328 327 322 319 317 317 314 312 311 310 309 310 310 311 310 311 309 308 305 303 301 299 296 298 295 295 298 298 300 300 297 295 291
169 168 168 178 279 320 324 322 321 321 320 320 319 316 315 315 312 311 310 309 308 309 310 310 310 312 312 311 309 308 306 306 304 301 297 299 301 302 301 300 299 295 293
167 169 204 307 313 312 311 312 316 317 317 316 316 315 314 315 312 312 311 310 309 309 310 311 312 313 314 314 312 309 308 306 308 307 302 300 298 297 295 297 294 297 295
165 290 297 301 299 307 314 318 319 319 318 317 316 316 316 315 314 315 314 313 312 311 309 310 310 311 312 315 315 313 310 314 316 313 308 304 306 309 310 298 297 294 297
277 295 286 295 307 314 317 317 316 316 315 314 313 315 315 317 319 319 317 314 312 310 311 314 317 319 320 321 317 311 313 315 308 307 310 313 319 323 322 319 313 305 298
263 274 293 305 312 315 317 317 316 314 313 314 314 313 314 315 316 316 316 317 315 312 315 316 317 322 321 318 318 317 314 309 309 312 316 323 327 320 316 314 311 310 308
265 280 299 310 313 314 315 314 315 315 314 314 315 314 314 314 315 315 317 318 316 311 314 313 313 316 319 321 325 324 320 321 319 319 321 321 313 315 320 324 327 328 320
274 291 303 310 314 316 318 320 321 322 319 318 317 316 316 318 321 321 317 315 315 311 311 310 315 319 316 321 327 332 331 326 322 321 318 320 324 327 331 335 331 324 318
278 292 305 313 315 318 320 322 322 324 324 326 327 325 323 320 319 315 310 312 306 303 308 308 313 313 313 320 325 332 332 329 326 324 327 327 330 334 337 337 330 317 310
273 287 299 305 308 310 313 315 321 324 328 329 326 320 317 315 315 311 309 304 305 308 304 308 308 306 311 314 319 326 333 330 327 326 324 327 329 336 340 340 332 317 310
268 279 290 299 305 311 319 323 321 320 321 322 320 316 313 313 310 309 307 305 307 308 307 307 302 301 299 303 311 318 323 326 332 325 326 327 330 335 344 350 342 329 326
267 279 292 303 312 318 318 317 316 316 317 319 322 321 317 314 312 308 305 304 305 302 299 296 288 286 290 296 303 309 315 320 325 330 337 339 348 348 348 356 349 339 335
273 288 299 306 311 311 310 310 312 313 315 318 320 318 318 315 310 304 303 305 307 307 304 299 295 294 293 293 294 297 302 307 318 323 324 325 333 343 346 345 335 323 313
284 292 297 301 303 303 306 307 310 312 314 315 316 315 316 309 307 304 304 304 302 302 302 300 297 296 296 297 296 295 295 297 301 307 315 322 324 322 321 320 316 308 299
283 288 293 296 297 301 304 306 309 310 311 312 312 312 311 306 310 306 305 306 304 302 300 298 297 296 294 295 296 297 298 299 300 302 304 307 310 314 317 317 314 310 303
278 285 291 295 299 302 304 306 307 308 310 310 310 310 308 306 305 305 303 302 302 302 302 301 299 299 298 297 297 297 298 300 301 303 304 304 305 306 307 307 306 303 301
280 288 292 296 298 302 304 305 307 308 309 309 309 310 310 310 309 307 305 304 304 304 302 302 301 301 300 300 299 298 299 300 302 303 308 310 308 307 306 303 301 298 295
281 286 289 293 297 300 302 303 303 304 305 307 308 307 308 308 307 306 306 305 304 304 304 303 303 303 301 298 296 296 298 301 302 303 304 303 303 302 300 296 295 294 293
280 284 288 293 296 298 299 300 300 301 302 303 304 304 304 304 304 303 302 303 302 302 302 301 300 299 298 299 301 305 310 314 308 303 300 301 302 303 302 299 297 294 292
277 284 289 293 296 297 298 299 299 299 300 300 300 300 301 301 301 301 301 302 303 304 306 307 309 310 310 310 308 305 301 299 298 297 298 298 297 297 296 295 294 292 290